Location: Newark
(21.1200°N, 73.4000°E)
Time: 19:40:22
(UTC+00:00)

SR - Pass Details

Date: 29 January 2020
Orbit: 575 x 881 km, 66.7° (Epoch: 17 February)

Event Time Altitude Azimuth Distance (km) Brightness Sun altitude
Rises 01:18:40 0° 355° (N) 3,260 ? -6.6°
Reaches altitude 10° 01:21:39 10° 9° (N) 2,272 ? -5.9°
Maximum altitude 01:25:40 23° 61° (ENE) 1,508 ? -5.0°
Drops below altitude 10° 01:29:25 10° 113° (ESE) 2,108 ? -4.2°
Sets 01:32:04 0° 128° (SE) 2,966 ? -3.6°
